GLD1774 TISX-TUPJ

Flight info

Callsign GLD1774
Flight time 0h 26m
Altitude 3000
Route DCT
Aircraft C172/M-SDFGIRY/S

Departure

Time 2026-04-22 14:16
Airport Henry E. Rohlsen Airport (TISX)

Arrival

Time 2026-04-22 14:42
Airport Terrance B. Lettsome International Airport (TUPJ)
Time Latitude Longitude Altitude Speed Heading
2026-04-22 14:04 17.70036 -64.79269 25 ft 0 kts 171°
2026-04-22 14:09 17.70016 -64.79279 25 ft 8 kts 250°
2026-04-22 14:10 17.70071 -64.79326 26 ft 15 kts 336°
2026-04-22 14:10 17.70095 -64.79427 27 ft 16 kts 264°
2026-04-22 14:10 17.70083 -64.79537 29 ft 15 kts 263°
2026-04-22 14:10 17.70072 -64.79638 31 ft 13 kts 263°
2026-04-22 14:11 17.70062 -64.79728 33 ft 12 kts 265°
2026-04-22 14:11 17.70055 -64.79814 34 ft 13 kts 265°
2026-04-22 14:11 17.70047 -64.79911 35 ft 14 kts 264°
2026-04-22 14:11 17.70036 -64.80019 37 ft 15 kts 262°
2026-04-22 14:12 17.70022 -64.80135 39 ft 17 kts 263°
2026-04-22 14:12 17.70009 -64.80259 41 ft 18 kts 264°
2026-04-22 14:12 17.69995 -64.80390 43 ft 19 kts 263°
2026-04-22 14:12 17.69983 -64.80528 46 ft 19 kts 266°
2026-04-22 14:13 17.69972 -64.80673 49 ft 20 kts 263°
2026-04-22 14:13 17.69953 -64.80819 52 ft 21 kts 264°
2026-04-22 14:13 17.69984 -64.80917 54 ft 6 kts 353°
2026-04-22 14:13 17.69987 -64.80918 54 ft 0 kts 352°
2026-04-22 14:14 17.69991 -64.80918 54 ft 4 kts 353°
2026-04-22 14:14 17.70057 -64.80922 54 ft 15 kts 15°
2026-04-22 14:14 17.70099 -64.80769 52 ft 39 kts 84°
2026-04-22 14:14 17.70141 -64.80332 41 ft 78 kts 84°
2026-04-22 14:15 17.70198 -64.79749 181 ft 86 kts 86°
2026-04-22 14:15 17.70259 -64.79066 242 ft 98 kts 84°
2026-04-22 14:15 17.70305 -64.78400 482 ft 88 kts 83°
2026-04-22 14:15 17.70459 -64.77820 628 ft 81 kts 65°
2026-04-22 14:16 17.70782 -64.77369 840 ft 76 kts 45°
2026-04-22 14:16 17.71215 -64.77001 909 ft 88 kts 40°
2026-04-22 14:16 17.71795 -64.76686 1025 ft 101 kts 19°
2026-04-22 14:16 17.72516 -64.76452 1024 ft 110 kts 14°
2026-04-22 14:17 17.73283 -64.76333 1134 ft 113 kts 15°
2026-04-22 14:17 17.74053 -64.76145 1233 ft 113 kts 18°
2026-04-22 14:17 17.74820 -64.75949 1327 ft 113 kts 19°
2026-04-22 14:17 17.75582 -64.75756 1417 ft 112 kts 20°
2026-04-22 14:18 17.76336 -64.75562 1534 ft 113 kts 18°
2026-04-22 14:18 17.77093 -64.75372 1625 ft 110 kts 19°
2026-04-22 14:18 17.77842 -64.75190 1731 ft 112 kts 18°
2026-04-22 14:18 17.78584 -64.74982 1830 ft 109 kts 18°
2026-04-22 14:19 17.79318 -64.74796 1918 ft 107 kts 19°
2026-04-22 14:19 17.80019 -64.74605 2012 ft 104 kts 20°
2026-04-22 14:19 17.80720 -64.74429 2105 ft 103 kts 18°
2026-04-22 14:19 17.81407 -64.74252 2206 ft 101 kts 19°
2026-04-22 14:20 17.82773 -64.73856 2398 ft 102 kts 20°
2026-04-22 14:20 17.83452 -64.73641 2493 ft 101 kts 22°
2026-04-22 14:20 17.84121 -64.73430 2589 ft 100 kts 21°
2026-04-22 14:21 17.85428 -64.73021 2775 ft 97 kts 21°
2026-04-22 14:21 17.86075 -64.72819 2869 ft 97 kts 21°
2026-04-22 14:22 17.87397 -64.72407 2992 ft 105 kts 21°
2026-04-22 14:22 17.88117 -64.72182 3002 ft 111 kts 20°
2026-04-22 14:22 17.89627 -64.71713 2999 ft 115 kts 21°
2026-04-22 14:23 17.90394 -64.71475 3001 ft 115 kts 21°
2026-04-22 14:23 17.91161 -64.71235 3001 ft 115 kts 21°
2026-04-22 14:23 17.91936 -64.70993 2995 ft 116 kts 21°
2026-04-22 14:23 17.92712 -64.70752 2995 ft 116 kts 20°
2026-04-22 14:24 17.93480 -64.70513 2988 ft 113 kts 20°
2026-04-22 14:24 17.94228 -64.70281 2984 ft 112 kts 20°
2026-04-22 14:24 17.94988 -64.70110 2981 ft 112 kts 16°
2026-04-22 14:24 17.95751 -64.69953 2981 ft 112 kts 15°
2026-04-22 14:25 17.96516 -64.69792 2981 ft 112 kts 15°
2026-04-22 14:25 17.97280 -64.69618 2978 ft 111 kts 17°
2026-04-22 14:25 17.98033 -64.69459 2976 ft 111 kts 16°
2026-04-22 14:25 17.98783 -64.69291 2979 ft 110 kts 16°
2026-04-22 14:26 17.99535 -64.69138 2975 ft 110 kts 15°
2026-04-22 14:26 18.00277 -64.68985 2977 ft 111 kts 15°
2026-04-22 14:26 18.01034 -64.68826 2982 ft 111 kts 15°
2026-04-22 14:26 18.01807 -64.68670 2979 ft 114 kts 15°
2026-04-22 14:27 18.02580 -64.68505 2982 ft 113 kts 15°
2026-04-22 14:27 18.03353 -64.68343 2976 ft 113 kts 16°
2026-04-22 14:27 18.04127 -64.68176 2982 ft 115 kts 15°
2026-04-22 14:27 18.04903 -64.67991 2978 ft 114 kts 17°
2026-04-22 14:28 18.05681 -64.67813 2982 ft 115 kts 17°
2026-04-22 14:28 18.06461 -64.67630 2979 ft 114 kts 18°
2026-04-22 14:28 18.07242 -64.67449 2979 ft 115 kts 17°
2026-04-22 14:28 18.08016 -64.67260 2975 ft 112 kts 16°
2026-04-22 14:29 18.08765 -64.67074 2977 ft 113 kts 16°
2026-04-22 14:29 18.09521 -64.66886 2973 ft 111 kts 18°
2026-04-22 14:29 18.10274 -64.66706 2973 ft 111 kts 17°
2026-04-22 14:29 18.11026 -64.66526 2974 ft 111 kts 17°
2026-04-22 14:30 18.11776 -64.66345 2974 ft 110 kts 17°
2026-04-22 14:30 18.12529 -64.66164 2978 ft 111 kts 17°
2026-04-22 14:30 18.13281 -64.65983 2980 ft 111 kts 18°
2026-04-22 14:30 18.14035 -64.65806 2977 ft 111 kts 16°
2026-04-22 14:31 18.14790 -64.65626 2978 ft 111 kts 17°
2026-04-22 14:31 18.15556 -64.65447 2981 ft 114 kts 17°
2026-04-22 14:31 18.16331 -64.65265 2983 ft 114 kts 17°
2026-04-22 14:31 18.17099 -64.65082 2982 ft 115 kts 16°
2026-04-22 14:32 18.17873 -64.64902 2981 ft 113 kts 16°
2026-04-22 14:32 18.18636 -64.64723 2980 ft 113 kts 17°
2026-04-22 14:32 18.19398 -64.64540 2980 ft 112 kts 17°
2026-04-22 14:32 18.20158 -64.64359 2979 ft 112 kts 17°
2026-04-22 14:33 18.20918 -64.64173 2981 ft 112 kts 17°
2026-04-22 14:33 18.21689 -64.63998 2935 ft 115 kts 17°
2026-04-22 14:33 18.22481 -64.63808 2864 ft 118 kts 16°
2026-04-22 14:33 18.23275 -64.63617 2797 ft 119 kts 16°
2026-04-22 14:34 18.24088 -64.63413 2725 ft 121 kts 16°
2026-04-22 14:34 18.24916 -64.63213 2657 ft 122 kts 17°
2026-04-22 14:34 18.25720 -64.63022 2565 ft 115 kts 18°
2026-04-22 14:34 18.26455 -64.62749 2489 ft 111 kts 25°
2026-04-22 14:35 18.27167 -64.62461 2402 ft 109 kts 25°
2026-04-22 14:35 18.27869 -64.62184 2323 ft 107 kts 24°
2026-04-22 14:35 18.28562 -64.61899 2268 ft 107 kts 25°
2026-04-22 14:35 18.29285 -64.61705 2190 ft 106 kts 18°
2026-04-22 14:36 18.30007 -64.61509 2115 ft 108 kts 19°
2026-04-22 14:36 18.30729 -64.61323 2045 ft 106 kts 19°
2026-04-22 14:36 18.31440 -64.61136 1973 ft 106 kts 19°
2026-04-22 14:36 18.32140 -64.60957 1889 ft 100 kts 19°
2026-04-22 14:37 18.32836 -64.60773 1830 ft 106 kts 19°
2026-04-22 14:37 18.33561 -64.60578 1757 ft 109 kts 19°
2026-04-22 14:37 18.34290 -64.60343 1693 ft 111 kts 21°
2026-04-22 14:37 18.35040 -64.60118 1618 ft 113 kts 21°
2026-04-22 14:38 18.35794 -64.59883 1545 ft 113 kts 21°
2026-04-22 14:38 18.36545 -64.59646 1475 ft 113 kts 21°
2026-04-22 14:38 18.37304 -64.59444 1397 ft 113 kts 20°
2026-04-22 14:38 18.38067 -64.59230 1325 ft 115 kts 18°
2026-04-22 14:39 18.38854 -64.58994 1201 ft 119 kts 21°
2026-04-22 14:39 18.39634 -64.58778 1079 ft 114 kts 18°
2026-04-22 14:39 18.40383 -64.58570 1002 ft 103 kts 18°
2026-04-22 14:40 18.41440 -64.58291 991 ft 85 kts 18°
2026-04-22 14:40 18.42168 -64.57965 985 ft 87 kts 39°
2026-04-22 14:40 18.42615 -64.57559 954 ft 90 kts 48°
2026-04-22 14:40 18.42983 -64.57038 854 ft 88 kts 56°
2026-04-22 14:41 18.43307 -64.56492 683 ft 86 kts 61°
2026-04-22 14:41 18.43583 -64.55955 470 ft 81 kts 55°
2026-04-22 14:41 18.43870 -64.55454 264 ft 79 kts 61°
2026-04-22 14:41 18.44126 -64.54970 112 ft 77 kts 61°
2026-04-22 14:42 18.44378 -64.54494 10 ft 63 kts 60°
2026-04-22 14:42 18.44508 -64.54252 10 ft 27 kts 60°
2026-04-22 14:42 18.44531 -64.54120 9 ft 18 kts 120°
2026-04-22 14:42 18.44521 -64.54044 11 ft 15 kts 68°
2026-04-22 14:43 18.44573 -64.53944 11 ft 13 kts 60°
2026-04-22 14:43 18.44603 -64.53865 11 ft 10 kts 131°
2026-04-22 14:43 18.44587 -64.53809 11 ft 8 kts 87°
2026-04-22 14:43 18.44587 -64.53803 11 ft 0 kts 86°